Location: Bogis-Bossey
(46.3500°N, 6.1667°E)
Time: 18:27:11
(UTC+00:00)

ARIANE 5 R/B - Pass Details

Date: 17 August 2022
Orbit: 621 x 654 km, 98.1° (Epoch: 23 September)

Event Time Altitude Azimuth Distance (km) Brightness Sun altitude
Exits shadow 21:51:21 61° 274° (W) 711 2.9 -25.7°
Drops below altitude 10° 21:55:30 10° 340° (NNW) 2,013 6.2 -26.0°
Sets 21:57:44 0° 344° (NNW) 2,930 7.3 -26.2°
